Location: Baix
(44.7118°N, 4.7648°E)
Time: 07:08:58
(UTC+00:00)

Vanguard 1 - Pass Details

Date: 28 November 2020
Orbit: 648 x 3834 km, 34.3° (Epoch: 21 January)

Event Time Altitude Azimuth Distance (km) Brightness Sun altitude
Rises 12:58:09 0° 265° (W) 6,426 14.6 20.8°
Reaches altitude 10° 13:08:06 10° 236° (SW) 6,219 15.3 20.1°
Maximum altitude 13:12:15 11° 224° (SW) 6,382 15.9 19.8°
Drops below altitude 10° 13:16:42 10° 211° (SSW) 6,679 16.7 19.4°
Sets 13:29:48 0° 183° (S) 7,963 15.8 18.3°
